AirNav   Bose ProFlight Series 2 Headset
 
 1751 users online  

0AR0 SMH Heliport
Springdale, Arkansas, USA

GOING TO SPRINGDALE?


FAA INFORMATION EFFECTIVE 30 JANUARY 2020

Location

FAA Identifier: 0AR0
Lat/Long: 36-10-53.2790N 094-08-13.7310W
36-10.887983N 094-08.228850W
36.1814664,-94.1371475
(estimated)
Elevation: 1352 ft. / 412 m (estimated)
Variation: 05E (1985)
Time zone: UTC -6 (UTC -5 during Daylight Saving Time)
Zip code: 72764

Heliport Operations

Heliport use: Private use, MEDICAL.
Activation date: 05/1989
Control tower: no
ARTCC: MEMPHIS CENTER
FSS: JONESBORO FLIGHT SERVICE STATION
Attendance: UNATNDD
Wind indicator: yes
Segmented circle: no
Lights: SS-SR

Heliport Communications

WX AWOS-3 at ASG (0.9 nm E): 124.675 (479-750-2967)
WX ASOS at XNA (10 nm NW): 119.425 (479-203-0109)
WX AWOS-3PT at VBT (11 nm N): 134.975 (479-273-9198)
WX ASOS at FYV (11 nm S): 119.575 (479-442-5237)
WX AWOS-3PT at ROG (12 nm N): 134.375 (479-631-9196)
WX AWOS-3PT at SLG (17 nm W): 118.375 (479-524-9893)

Nearby radio navigation aids

VOR radial/distance  VOR name  Freq  Var
RZCr187/4.0RAZORBACK VORTAC116.4004E

 
NDB name  Hdg/Dist  Freq  Var  ID
SILOAM SPRINGS088/17.028404ESLG ... .-.. --.

Heliport Services

Runway Information

Helipad H1

Dimensions: 60 x 60 ft. / 18 x 18 m
Surface: asphalt
Runway edge lights: PERI
ALSO FLOOD LGTS.
Latitude: 36-10.887983N
Longitude: 094-08.228850W
Elevation: 1352.0 ft.
Traffic pattern: leftleft

Heliport Ownership and Management from official FAA records

Ownership: Privately-owned
Owner: NORTHWEST MEDICAL CNTR - SPRINGDALE
607 MAPLE
SPRINGDALE, AR 72764
Phone (479) 751-5711
Manager: PHIL DAVIS
607 MAPLE
SPRINGDALE, AR 72764
Phone (479) 757-4601

Heliport Operational Statistics

Aircraft based on the field: 1
Helicopters: 1
    

Additional Remarks

FOR CD CTC RAZORBACK APCH 479-649-2416, WHEN APCH CLSD CTC MEMPHIS ARTCC AT 901-368-8453.

Instrument Procedures

There are no published instrument procedures at 0AR0.

Some nearby airports with instrument procedures:

KASG - Springdale Municipal Airport (1 nm E)
KXNA - Northwest Arkansas Regional Airport (10 nm NW)
KVBT - Bentonville Municipal Airport/Louise M Thaden Field (11 nm N)
KFYV - Drake Field Airport (11 nm S)
KROG - Rogers Executive Airport - Carter Field (12 nm N)
KSLG - Smith Field Airport (17 nm W)
5M5 - Crystal Lake Airport (18 nm NW)
H34 - Huntsville Municipal Airport (20 nm E)
 
Loc | Ops | Rwys | IFR | FBO | Links
Com | Nav | Svcs | Stats | Notes

Branson Jet Center
AirBoss

 
Area around 0AR0 (SMH Heliport)
 
Road maps at: MapQuest Bing Google
 
Aerial photo
No photo
 
Sectional chart

 
Airport distance calculator
Flying to SMH Heliport? Find the distance to fly.

From to 0AR0

Sunrise and sunset
Times for 26-Feb-2020
 Local
(UTC-6)
 Zulu
(UTC)
Morning civil twilight06:2612:26
Sunrise06:5212:52
Sunset18:0700:07
Evening civil twilight18:3300:33

Current date and time
Zulu (UTC)  26-Feb-2020 17:17:12
Local (UTC-6)  26-Feb-2020 11:17:12
 
METAR
KASG 261648Z 33014KT 10SM BKN020 OVC026 00/M02 A3030
KXNA 
10nm NW 
261653Z 33010KT 10SM BKN018 BKN026 OVC033 M01/M04 A3030 RMK AO2 SLP269 T10061039
KFYV 
10nm S 
261653Z 32011G18KT 10SM OVC024 01/M04 A3030 RMK AO2 SLP268 T00061039
KVBT 
11nm N 
261656Z AUTO 32009KT 10SM UP SCT018 OVC027 00/M03 A3032 RMK AO2 UPB12E21B48 SLP279 P0000 T00001028 FZRANO TSNO
KROG 
11nm N 
261658Z 32010KT 9SM -SN BKN021 OVC026 M01/M03 A3030 RMK AO2 UPB18E39SNB22E35B39 SLP269 T10061028 PNO $
KSLG 
16nm W 
261656Z AUTO 33015G20KT 9SM -SN BKN018 OVC027 01/M03 A3032 RMK AO2 SLP277 P0000 T00061028 FZRANO TSNO $
TAF
KXNA 
10nm NW 
261120Z 2612/2712 35010KT P6SM -SN BKN010 OVC022 FM261500 34012G20KT P6SM OVC015 FM261900 32013G21KT P6SM BKN035 FM270100 32008KT P6SM SKC FM270500 29003KT P6SM SKC
KFYV 
10nm S 
261120Z 2612/2712 36010KT P6SM -SN BKN010 OVC017 FM261500 34012G20KT P6SM OVC015 FM261900 32013G21KT P6SM BKN035 FM270100 32008KT P6SM SKC FM270500 VRB03KT P6SM SKC
KROG 
11nm N 
261120Z 2612/2712 35010G14KT P6SM -SN OVC008 FM261500 34012G20KT P6SM OVC015 FM261900 32013G21KT P6SM BKN035 FM270100 32008KT P6SM SKC FM270500 28003KT P6SM SKC
NOTAMs
Click for the latest NOTAMs
NOTAMs are issued by the DoD/FAA and will open in a separate window not controlled by AirNav.

 

 
 

Would you like to see your business listed on this page?

 If your business provides an interesting product or service to pilots, flight crews, aircraft, or users of the SMH Heliport, you should consider listing it here.  To start the listing process, click on the button below
 
Add a business
 

Other Pages about SMH Heliport

Update a link
 
Copyright © AirNav, LLC. All rights reserved. Privacy Policy  Contact